STARLINK-11497, 62470

Orbit data source: Space-Track

STARLINK-11497, 62470 is a payload satellite owned by SpaceX/Seattle (US) in LEO that was launched on Tue, 31 Dec 2024 UTC via an FALCON 9 launch vehicle from the Air Force Eastern Test Range (AFETR). Payload-class satellites include a variety of spacecraft equipped with specific instruments for various scientific and technological missions. These include communications satellites like Starlink; space stations such as the ISS; scientific satellites like the Hubble; Earth observation satellites from companies like Planet Labs, Umbra, and HawkEye 360; GPS; miniature CubeSats for education and research; and military/defense satellites.

Loading next visibility...
Identifier
62470, 2024-254J
Orbit
LEO
Country
Flag of USUS
Related business
Manufacturer
SpaceX/Seattle
Mission
Operational Commercial Communications
Bus & Motor
STARLINK V2MD, Unknown motor
Mass
960 kg wet, ~910 kg dry
Launch date (UTC)
2024-12-31 (1 year ago)
Launch vehicle
FALCON 9
Launch site
Air Force Eastern Test Range (AFETR)
Object type
Payload
Rocket body
Debris
Shape & HBR
Box + 2 Pan, 18.1 m
Radar Cross Section
36.964 m², Large (>1 m²)

Expand to show TLE details & history
Last TLE update: 6 hours ago

TLE from 6 hours ago
0 STARLINK-11497
1 62470U 24254J   26035.16668981 -.00115002  00000-0 -90517-3 0  9993
2 62470  42.9999  65.1400 0001459 284.1134 229.2407 15.70839968  5233
Epoch: 2026-02-04T04:00Z
TLE epoch observation values (Epoch: 2026-02-04T04:00:01.999Z)
Latitude
17.86896°
Longitude
30.68694°
Altitude
356.322 km
Speed
7.698 km/s
True Right ascension
15h 00m 07s
True Declination
17° 45' 46"
Sunlit
Object was in daylight at epoch
Visualization orbit readout
Latitude
Unknown
Longitude
Unknown
Altitude
Unknown
Speed
Unknown
Apparent Right ascension
Unknown
Apparent Declination
Unknown
Sunlit
N/A
Visualization observer readout
Local Sidereal Time
11:29:24
Azimuth
Unknown
Elevation
Unknown
Doppler factor
Unknown
Orbital elements
Apogee altitude
359.46 km
Perigee altitude
357.494 km
Semi-major axis
6,736.614 km
Eccentricity
0.00015
Inclination
42.9999°
RAAN
65.14°
Arg. of periapsis
284.1134°
True anomaly
229.22804°
Mean anomaly
229.2407°
Eccentric anomaly
229.23437°
Mean motion
3.92537 °/min
Orbital period
91.71 mins
BSTAR
-0.00090517
Loading maneuver chart data...
Computing Atmospheric mass density...
Loading historical data...
Loading historical data...
Loading historical data...
Loading historical data...
Loading historical data...
Loading historical data...
Loading historical data...

Documentation

Showing up to 5 results
|